Orbital Elements at Epoch 2459200.5 (2020-Dec-17.0) TDB
Reference: JPL 22 (heliocentric ecliptic J2000)
Element | Value | Uncertainty (1-sigma) | Units |
e | .1252279710194083 | 3.887e-08 | |
a | 3.024244066080017 | 1.6004e-08 | au |
q | 2.645524117817331 | 1.2113e-07 | au |
i | 4.815146019192301 | 4.1484e-06 | deg |
node | 227.8891515637581 | 4.3644e-05 | deg |
peri | 200.5564512354056 | 4.6471e-05 | deg |
M | 355.8169700187993 | 1.4797e-05 | deg |
tp | 2459222.820923509511 (2021-Jan-08.32092351) | 7.8952e-05 | TDB |
period | 1920.983712652592 5.26 | 1.5249e-05 4.175e-08 | d yr |
n | .1874039835053539 | 1.4876e-09 | deg/d |
Q | 3.402964014342702 | 1.8008e-08 | au |
|
| | Orbit Determination Parameters
Additional Information
|